Weather in Birlya

Russia / Ulyanovsk Oblast     53°55′09″N   49°14′34″E
temp.,
°C
wind,
m/s
gust,
m/s
humid.,
%
clouds,
%
prec.,
mm/h
press.,
hPa
HPBL,
m
6 march, sat
sat601:00−11wsw23910 0.0 101121
04:00−11sw33910 0.0 101231
07:00−12w349446 0.0 101355
10:00−10nw489123 0.0 1015224
13:00−8nw468428 0.0 1015364
16:00−8nw228764 0.0 101487
19:00−12n1182100 0.0 101421
22:00−13s127894 0.0 101421
7 march, sun
sun701:00−13sw228474 0.0 101320
04:00−14wsw119476 0.0 101320
07:00−15wnw129866 0.0 101220
10:00−12sw229577 0.1 101271
13:00−8ssw358853 0.0 1011310
16:00−6ssw598563 0.0 1009431
19:00−8ssw81485100 0.0 1006451
22:00−7ssw101694100 0.7 1004786
8 march, mon
mon801:00−5ssw111794100 0.9 999855
04:00−4ssw91693100 1.3 998614
07:00−5nw5981100 0.7 998313
10:00−8sw347883 0.7 100089
13:00−5ssw711740 0.0 1000666
16:00−3sw6108047 0.1 1000822
19:00−6sw598599 0.3 1000154
22:00−6w6129099 0.5 1002363
9 march, tue
tue901:00−10wsw589144 0.0 1005140
04:00−12w589122 0.0 1007120
07:00−14wnw47920 0.0 100987
10:00−13wnw47913 0.0 1012270
13:00−11wnw358627 0.0 1013445
16:00−11nw348723 0.0 1014220
19:00−16nnw33904 0.0 101420
22:00−18nw339611 0.0 101622
10 march, wed
wed1001:00−18nnw339792 0.0 101727
04:00−20nnw449796 0.0 101754
07:00−23nw449982 0.0 101853
10:00−20nnw589586 0.1 1019284
13:00−18nnw689186 0.0 1020409
16:00−18nw688988 0.0 1020507
19:00−22nw469453 0.0 102184
22:00−24nw569527 0.0 102390